Location: Unspecified
(0.0000°N, 0.0000°E)
Time: 04:43:27
(UTC+00:00)

Hubble Space Telescope - Pass Details

Date: 26 May 2017
Orbit: 538 x 542 km, 28.5° (Epoch: 22 July)

Event Time Altitude Azimuth Distance (km) Brightness Sun altitude
Exits shadow 04:46:25 - 318° (NW) 2,608 4.1 -16.4°
Reaches altitude 10° 04:48:43 10° 329° (NNW) 1,784 3.3 -15.9°
Maximum altitude 04:52:19 28° 29° (NNE) 1,010 2.7 -15.1°
Drops below altitude 10° 04:55:55 10° 90° (E) 1,786 4.6 -14.2°
Sets 04:58:24 0° 102° (ESE) 2,678 5.3 -13.7°
